Data supplied by UK-AIR on 2/5/2024
All Data GMT hour ending 
Status: R =Ratified P=Provisional,P*=As supplied
,,Lough Navar,,,,,,,,,,,,,,,,,,,,,,,
Date,time,"PM<sub>10</sub> particulate matter (Hourly measured)",status,unit,"Ozone",status,unit,"PM<sub>2.5</sub> particulate matter (Hourly measured)",status,unit
 
01-01-2024,01:00,6.350,P,ugm-3 (FIDAS),64.79373,P,ugm-3,3.609,P,ugm-3 (Ref.eq)
01-01-2024,02:00,5.925,P,ugm-3 (FIDAS),65.79158,P,ugm-3,3.349,P,ugm-3 (Ref.eq)
01-01-2024,03:00,4.800,P,ugm-3 (FIDAS),63.06412,P,ugm-3,2.406,P,ugm-3 (Ref.eq)
01-01-2024,04:00,3.275,P,ugm-3 (FIDAS),66.90584,P,ugm-3,1.863,P,ugm-3 (Ref.eq)
01-01-2024,05:00,5.075,P,ugm-3 (FIDAS),66.15746,P,ugm-3,2.783,P,ugm-3 (Ref.eq)
01-01-2024,06:00,3.625,P,ugm-3 (FIDAS),53.98369,P,ugm-3,1.887,P,ugm-3 (Ref.eq)
01-01-2024,07:00,2.950,P,ugm-3 (FIDAS),39.76432,P,ugm-3,1.604,P,ugm-3 (Ref.eq)
01-01-2024,08:00,3.375,P,ugm-3 (FIDAS),40.21336,P,ugm-3,1.792,P,ugm-3 (Ref.eq)
01-01-2024,09:00,2.525,P,ugm-3 (FIDAS),27.74023,P,ugm-3,1.415,P,ugm-3 (Ref.eq)
01-01-2024,10:00,3.125,P,ugm-3 (FIDAS),22.35184,P,ugm-3,1.368,P,ugm-3 (Ref.eq)
01-01-2024,11:00,3.000,P,ugm-3 (FIDAS),21.65335,P,ugm-3,1.486,P,ugm-3 (Ref.eq)
01-01-2024,12:00,4.325,P,ugm-3 (FIDAS),29.43658,P,ugm-3,1.958,P,ugm-3 (Ref.eq)
01-01-2024,13:00,8.150,P,ugm-3 (FIDAS),47.24820,P,ugm-3,3.797,P,ugm-3 (Ref.eq)
01-01-2024,14:00,9.350,P,ugm-3 (FIDAS),49.54325,P,ugm-3,4.434,P,ugm-3 (Ref.eq)
01-01-2024,15:00,7.425,P,ugm-3 (FIDAS),47.29809,P,ugm-3,4.292,P,ugm-3 (Ref.eq)
01-01-2024,16:00,4.400,P,ugm-3 (FIDAS),60.07057,P,ugm-3,3.019,P,ugm-3 (Ref.eq)
01-01-2024,17:00,2.425,P,ugm-3 (FIDAS),64.31143,P,ugm-3,1.863,P,ugm-3 (Ref.eq)
01-01-2024,18:00,1.700,P,ugm-3 (FIDAS),65.70842,P,ugm-3,1.415,P,ugm-3 (Ref.eq)
01-01-2024,19:00,1.300,P,ugm-3 (FIDAS),66.95574,P,ugm-3,0.967,P,ugm-3 (Ref.eq)
01-01-2024,20:00,1.600,P,ugm-3 (FIDAS),65.05982,P,ugm-3,1.344,P,ugm-3 (Ref.eq)
01-01-2024,21:00,1.750,P,ugm-3 (FIDAS),62.36563,P,ugm-3,1.321,P,ugm-3 (Ref.eq)
01-01-2024,22:00,2.100,P,ugm-3 (FIDAS),51.38928,P,ugm-3,1.486,P,ugm-3 (Ref.eq)
01-01-2024,23:00,6.375,P,ugm-3 (FIDAS),41.46067,P,ugm-3,5.165,P,ugm-3 (Ref.eq)
01-01-2024,24:00,13.800,P,ugm-3 (FIDAS),63.26369,P,ugm-3,9.693,P,ugm-3 (Ref.eq)
02-01-2024,01:00,10.375,P,ugm-3 (FIDAS),65.39244,P,ugm-3,6.156,P,ugm-3 (Ref.eq)
02-01-2024,02:00,13.225,P,ugm-3 (FIDAS),66.39029,P,ugm-3,7.335,P,ugm-3 (Ref.eq)
02-01-2024,03:00,17.750,P,ugm-3 (FIDAS),64.01208,P,ugm-3,9.835,P,ugm-3 (Ref.eq)
02-01-2024,04:00,16.650,P,ugm-3 (FIDAS),65.40907,P,ugm-3,9.552,P,ugm-3 (Ref.eq)
02-01-2024,05:00,11.400,P,ugm-3 (FIDAS),67.60434,P,ugm-3,6.910,P,ugm-3 (Ref.eq)
02-01-2024,06:00,9.325,P,ugm-3 (FIDAS),64.61079,P,ugm-3,5.755,P,ugm-3 (Ref.eq)
02-01-2024,07:00,9.200,P,ugm-3 (FIDAS),64.66068,P,ugm-3,5.708,P,ugm-3 (Ref.eq)
02-01-2024,08:00,12.575,P,ugm-3 (FIDAS),62.06627,P,ugm-3,6.792,P,ugm-3 (Ref.eq)
02-01-2024,09:00,11.750,P,ugm-3 (FIDAS),44.90325,P,ugm-3,6.321,P,ugm-3 (Ref.eq)
02-01-2024,10:00,12.600,P,ugm-3 (FIDAS),53.13551,P,ugm-3,6.981,P,ugm-3 (Ref.eq)
02-01-2024,11:00,11.025,P,ugm-3 (FIDAS),53.58455,P,ugm-3,6.580,P,ugm-3 (Ref.eq)
02-01-2024,12:00,11.350,P,ugm-3 (FIDAS),51.23960,P,ugm-3,6.627,P,ugm-3 (Ref.eq)
02-01-2024,13:00,14.275,P,ugm-3 (FIDAS),53.93379,P,ugm-3,7.948,P,ugm-3 (Ref.eq)
02-01-2024,14:00,11.475,P,ugm-3 (FIDAS),49.74282,P,ugm-3,6.934,P,ugm-3 (Ref.eq)
02-01-2024,15:00,6.475,P,ugm-3 (FIDAS),53.88390,P,ugm-3,4.104,P,ugm-3 (Ref.eq)
02-01-2024,16:00,4.925,P,ugm-3 (FIDAS),53.98369,P,ugm-3,3.019,P,ugm-3 (Ref.eq)
02-01-2024,17:00,3.875,P,ugm-3 (FIDAS),60.51960,P,ugm-3,2.264,P,ugm-3 (Ref.eq)
02-01-2024,18:00,2.600,P,ugm-3 (FIDAS),61.11831,P,ugm-3,1.344,P,ugm-3 (Ref.eq)
02-01-2024,19:00,5.525,P,ugm-3 (FIDAS),56.92734,P,ugm-3,3.939,P,ugm-3 (Ref.eq)
02-01-2024,20:00,9.800,P,ugm-3 (FIDAS),55.68003,P,ugm-3,7.618,P,ugm-3 (Ref.eq)
02-01-2024,21:00,9.450,P,ugm-3 (FIDAS),55.82971,P,ugm-3,7.264,P,ugm-3 (Ref.eq)
02-01-2024,22:00,6.850,P,ugm-3 (FIDAS),54.58240,P,ugm-3,4.741,P,ugm-3 (Ref.eq)
02-01-2024,23:00,7.500,P,ugm-3 (FIDAS),51.18971,P,ugm-3,4.764,P,ugm-3 (Ref.eq)
02-01-2024,24:00,10.250,P,ugm-3 (FIDAS),50.54110,P,ugm-3,6.958,P,ugm-3 (Ref.eq)
03-01-2024,01:00,10.175,P,ugm-3 (FIDAS),46.10067,P,ugm-3,6.651,P,ugm-3 (Ref.eq)
03-01-2024,02:00,7.650,P,ugm-3 (FIDAS),42.37536,P,ugm-3,4.080,P,ugm-3 (Ref.eq)
03-01-2024,03:00,7.825,P,ugm-3 (FIDAS),38.06798,P,ugm-3,3.892,P,ugm-3 (Ref.eq)
03-01-2024,04:00,6.025,P,ugm-3 (FIDAS),39.16561,P,ugm-3,3.349,P,ugm-3 (Ref.eq)
03-01-2024,05:00,4.775,P,ugm-3 (FIDAS),49.94239,P,ugm-3,2.925,P,ugm-3 (Ref.eq)
03-01-2024,06:00,3.600,P,ugm-3 (FIDAS),43.60605,P,ugm-3,2.099,P,ugm-3 (Ref.eq)
03-01-2024,07:00,4.250,P,ugm-3 (FIDAS),48.59530,P,ugm-3,2.453,P,ugm-3 (Ref.eq)
03-01-2024,08:00,2.250,P,ugm-3 (FIDAS),45.65164,P,ugm-3,1.321,P,ugm-3 (Ref.eq)
03-01-2024,09:00,1.525,P,ugm-3 (FIDAS),37.91830,P,ugm-3,0.731,P,ugm-3 (Ref.eq)
03-01-2024,10:00,2.100,P,ugm-3 (FIDAS),48.09637,P,ugm-3,0.967,P,ugm-3 (Ref.eq)
03-01-2024,11:00,1.900,P,ugm-3 (FIDAS),55.53035,P,ugm-3,0.873,P,ugm-3 (Ref.eq)
03-01-2024,12:00,1.600,P,ugm-3 (FIDAS),59.82111,P,ugm-3,0.755,P,ugm-3 (Ref.eq)
03-01-2024,13:00,1.650,P,ugm-3 (FIDAS),60.71917,P,ugm-3,1.061,P,ugm-3 (Ref.eq)
03-01-2024,14:00,1.225,P,ugm-3 (FIDAS),64.61079,P,ugm-3,0.755,P,ugm-3 (Ref.eq)
03-01-2024,15:00,1.925,P,ugm-3 (FIDAS),62.41552,P,ugm-3,1.038,P,ugm-3 (Ref.eq)
03-01-2024,16:00,1.450,P,ugm-3 (FIDAS),44.60390,P,ugm-3,0.708,P,ugm-3 (Ref.eq)
03-01-2024,17:00,1.600,P,ugm-3 (FIDAS),40.36303,P,ugm-3,0.778,P,ugm-3 (Ref.eq)
03-01-2024,18:00,0.900,P,ugm-3 (FIDAS),58.32433,P,ugm-3,0.448,P,ugm-3 (Ref.eq)
03-01-2024,19:00,1.475,P,ugm-3 (FIDAS),42.20906,P,ugm-3,0.991,P,ugm-3 (Ref.eq)
03-01-2024,20:00,6.975,P,ugm-3 (FIDAS),43.95529,P,ugm-3,5.802,P,ugm-3 (Ref.eq)
03-01-2024,21:00,14.900,P,ugm-3 (FIDAS),46.99874,P,ugm-3,12.689,P,ugm-3 (Ref.eq)
03-01-2024,22:00,6.450,P,ugm-3 (FIDAS),48.49551,P,ugm-3,4.693,P,ugm-3 (Ref.eq)
03-01-2024,23:00,10.550,P,ugm-3 (FIDAS),49.19401,P,ugm-3,7.877,P,ugm-3 (Ref.eq)
03-01-2024,24:00,12.325,P,ugm-3 (FIDAS),51.33938,P,ugm-3,9.623,P,ugm-3 (Ref.eq)
04-01-2024,01:00,3.875,P,ugm-3 (FIDAS),49.36031,P,ugm-3,2.524,P,ugm-3 (Ref.eq)
04-01-2024,02:00,2.275,P,ugm-3 (FIDAS),51.55558,P,ugm-3,1.509,P,ugm-3 (Ref.eq)
04-01-2024,03:00,2.450,P,ugm-3 (FIDAS),51.63874,P,ugm-3,1.344,P,ugm-3 (Ref.eq)
04-01-2024,04:00,2.675,P,ugm-3 (FIDAS),58.22455,P,ugm-3,1.274,P,ugm-3 (Ref.eq)
04-01-2024,05:00,2.475,P,ugm-3 (FIDAS),55.97939,P,ugm-3,1.344,P,ugm-3 (Ref.eq)
04-01-2024,06:00,2.300,P,ugm-3 (FIDAS),60.51960,P,ugm-3,1.274,P,ugm-3 (Ref.eq)
04-01-2024,07:00,3.525,P,ugm-3 (FIDAS),57.47616,P,ugm-3,1.840,P,ugm-3 (Ref.eq)
04-01-2024,08:00,6.450,P,ugm-3 (FIDAS),51.58885,P,ugm-3,2.948,P,ugm-3 (Ref.eq)
04-01-2024,09:00,6.975,P,ugm-3 (FIDAS),48.09637,P,ugm-3,3.420,P,ugm-3 (Ref.eq)
04-01-2024,10:00,5.350,P,ugm-3 (FIDAS),43.00734,P,ugm-3,2.759,P,ugm-3 (Ref.eq)
04-01-2024,11:00,3.875,P,ugm-3 (FIDAS),31.83142,P,ugm-3,1.981,P,ugm-3 (Ref.eq)
04-01-2024,12:00,3.750,P,ugm-3 (FIDAS),29.63615,P,ugm-3,2.075,P,ugm-3 (Ref.eq)
04-01-2024,13:00,4.800,P,ugm-3 (FIDAS),34.87486,P,ugm-3,2.311,P,ugm-3 (Ref.eq)
04-01-2024,14:00,5.050,P,ugm-3 (FIDAS),42.85766,P,ugm-3,2.382,P,ugm-3 (Ref.eq)
04-01-2024,15:00,4.700,P,ugm-3 (FIDAS),42.45852,P,ugm-3,2.618,P,ugm-3 (Ref.eq)
04-01-2024,16:00,4.350,P,ugm-3 (FIDAS),39.56475,P,ugm-3,2.311,P,ugm-3 (Ref.eq)
04-01-2024,17:00,3.050,P,ugm-3 (FIDAS),21.30410,P,ugm-3,1.745,P,ugm-3 (Ref.eq)
04-01-2024,18:00,2.550,P,ugm-3 (FIDAS),9.08044,P,ugm-3,1.557,P,ugm-3 (Ref.eq)
04-01-2024,19:00,2.500,P,ugm-3 (FIDAS),4.85620,P,ugm-3,1.321,P,ugm-3 (Ref.eq)
04-01-2024,20:00,2.350,P,ugm-3 (FIDAS),5.98710,P,ugm-3,1.392,P,ugm-3 (Ref.eq)
04-01-2024,21:00,2.200,P,ugm-3 (FIDAS),6.93506,P,ugm-3,1.156,P,ugm-3 (Ref.eq)
04-01-2024,22:00,1.975,P,ugm-3 (FIDAS),6.73549,P,ugm-3,1.061,P,ugm-3 (Ref.eq)
04-01-2024,23:00,2.200,P,ugm-3 (FIDAS),6.88517,P,ugm-3,1.344,P,ugm-3 (Ref.eq)
04-01-2024,24:00,3.075,P,ugm-3 (FIDAS),9.37979,P,ugm-3,1.910,P,ugm-3 (Ref.eq)
05-01-2024,01:00,8.425,P,ugm-3 (FIDAS),10.77678,P,ugm-3,6.910,P,ugm-3 (Ref.eq)
05-01-2024,02:00,2.650,P,ugm-3 (FIDAS),26.60933,P,ugm-3,1.675,P,ugm-3 (Ref.eq)
05-01-2024,03:00,3.425,P,ugm-3 (FIDAS),34.57550,P,ugm-3,1.769,P,ugm-3 (Ref.eq)
05-01-2024,04:00,3.175,P,ugm-3 (FIDAS),33.57765,P,ugm-3,1.557,P,ugm-3 (Ref.eq)
05-01-2024,05:00,3.775,P,ugm-3 (FIDAS),42.90755,P,ugm-3,1.958,P,ugm-3 (Ref.eq)
05-01-2024,06:00,5.075,P,ugm-3 (FIDAS),42.75787,P,ugm-3,2.476,P,ugm-3 (Ref.eq)
05-01-2024,07:00,3.050,P,ugm-3 (FIDAS),43.50626,P,ugm-3,1.533,P,ugm-3 (Ref.eq)
05-01-2024,08:00,3.225,P,ugm-3 (FIDAS),30.63400,P,ugm-3,1.604,P,ugm-3 (Ref.eq)
05-01-2024,09:00,3.125,P,ugm-3 (FIDAS),21.05464,P,ugm-3,1.698,P,ugm-3 (Ref.eq)
05-01-2024,10:00,6.800,P,ugm-3 (FIDAS),32.77937,P,ugm-3,3.066,P,ugm-3 (Ref.eq)
05-01-2024,11:00,7.475,P,ugm-3 (FIDAS),43.75572,P,ugm-3,3.585,P,ugm-3 (Ref.eq)
05-01-2024,12:00,7.250,P,ugm-3 (FIDAS),48.74497,P,ugm-3,3.491,P,ugm-3 (Ref.eq)
05-01-2024,13:00,4.250,P,ugm-3 (FIDAS),56.22885,P,ugm-3,2.075,P,ugm-3 (Ref.eq)
05-01-2024,14:00,3.900,P,ugm-3 (FIDAS),55.08132,P,ugm-3,1.816,P,ugm-3 (Ref.eq)
05-01-2024,15:00,3.175,P,ugm-3 (FIDAS),55.97939,P,ugm-3,1.580,P,ugm-3 (Ref.eq)
05-01-2024,16:00,3.250,P,ugm-3 (FIDAS),58.52390,P,ugm-3,1.604,P,ugm-3 (Ref.eq)
05-01-2024,17:00,3.550,P,ugm-3 (FIDAS),51.83831,P,ugm-3,1.934,P,ugm-3 (Ref.eq)
05-01-2024,18:00,2.525,P,ugm-3 (FIDAS),58.12476,P,ugm-3,1.486,P,ugm-3 (Ref.eq)
05-01-2024,19:00,3.575,P,ugm-3 (FIDAS),48.14626,P,ugm-3,2.594,P,ugm-3 (Ref.eq)
05-01-2024,20:00,8.300,P,ugm-3 (FIDAS),33.72733,P,ugm-3,6.392,P,ugm-3 (Ref.eq)
05-01-2024,21:00,10.575,P,ugm-3 (FIDAS),39.01594,P,ugm-3,8.609,P,ugm-3 (Ref.eq)
05-01-2024,22:00,11.900,P,ugm-3 (FIDAS),24.49722,P,ugm-3,10.613,P,ugm-3 (Ref.eq)
05-01-2024,23:00,7.825,P,ugm-3 (FIDAS),18.11098,P,ugm-3,6.439,P,ugm-3 (Ref.eq)
05-01-2024,24:00,9.525,P,ugm-3 (FIDAS),27.74023,P,ugm-3,7.642,P,ugm-3 (Ref.eq)
06-01-2024,01:00,3.825,P,ugm-3 (FIDAS),33.52776,P,ugm-3,2.406,P,ugm-3 (Ref.eq)
06-01-2024,02:00,2.300,P,ugm-3 (FIDAS),31.53206,P,ugm-3,1.344,P,ugm-3 (Ref.eq)
06-01-2024,03:00,2.250,P,ugm-3 (FIDAS),27.59055,P,ugm-3,1.014,P,ugm-3 (Ref.eq)
06-01-2024,04:00,1.900,P,ugm-3 (FIDAS),27.44088,P,ugm-3,1.085,P,ugm-3 (Ref.eq)
06-01-2024,05:00,1.750,P,ugm-3 (FIDAS),25.79442,P,ugm-3,0.943,P,ugm-3 (Ref.eq)
06-01-2024,06:00,2.050,P,ugm-3 (FIDAS),31.13292,P,ugm-3,0.896,P,ugm-3 (Ref.eq)
06-01-2024,07:00,1.525,P,ugm-3 (FIDAS),23.84862,P,ugm-3,0.755,P,ugm-3 (Ref.eq)
06-01-2024,08:00,1.875,P,ugm-3 (FIDAS),18.31055,P,ugm-3,0.660,P,ugm-3 (Ref.eq)
06-01-2024,09:00,1.650,P,ugm-3 (FIDAS),22.50152,P,ugm-3,0.731,P,ugm-3 (Ref.eq)
06-01-2024,10:00,1.850,P,ugm-3 (FIDAS),15.36689,P,ugm-3,0.755,P,ugm-3 (Ref.eq)
06-01-2024,11:00,1.425,P,ugm-3 (FIDAS),10.52732,P,ugm-3,0.660,P,ugm-3 (Ref.eq)
06-01-2024,12:00,3.125,P,ugm-3 (FIDAS),37.12002,P,ugm-3,1.486,P,ugm-3 (Ref.eq)
06-01-2024,13:00,5.625,P,ugm-3 (FIDAS),56.87745,P,ugm-3,2.288,P,ugm-3 (Ref.eq)
06-01-2024,14:00,5.800,P,ugm-3 (FIDAS),52.88605,P,ugm-3,2.453,P,ugm-3 (Ref.eq)
06-01-2024,15:00,5.275,P,ugm-3 (FIDAS),49.64304,P,ugm-3,2.594,P,ugm-3 (Ref.eq)
06-01-2024,16:00,4.500,P,ugm-3 (FIDAS),31.48217,P,ugm-3,2.241,P,ugm-3 (Ref.eq)
06-01-2024,17:00,3.000,P,ugm-3 (FIDAS),10.32775,P,ugm-3,1.439,P,ugm-3 (Ref.eq)
06-01-2024,18:00,3.525,P,ugm-3 (FIDAS),9.03054,P,ugm-3,2.146,P,ugm-3 (Ref.eq)
06-01-2024,19:00,12.925,P,ugm-3 (FIDAS),10.57721,P,ugm-3,11.061,P,ugm-3 (Ref.eq)
06-01-2024,20:00,6.825,P,ugm-3 (FIDAS),8.28216,P,ugm-3,5.236,P,ugm-3 (Ref.eq)
06-01-2024,21:00,22.125,P,ugm-3 (FIDAS),14.26926,P,ugm-3,19.929,P,ugm-3 (Ref.eq)
06-01-2024,22:00,17.950,P,ugm-3 (FIDAS),12.12388,P,ugm-3,15.543,P,ugm-3 (Ref.eq)
06-01-2024,23:00,4.800,P,ugm-3 (FIDAS),10.97635,P,ugm-3,3.797,P,ugm-3 (Ref.eq)
06-01-2024,24:00,1.600,P,ugm-3 (FIDAS),10.22796,P,ugm-3,0.825,P,ugm-3 (Ref.eq)
07-01-2024,01:00,1.900,P,ugm-3 (FIDAS),15.36689,P,ugm-3,0.967,P,ugm-3 (Ref.eq)
07-01-2024,02:00,2.200,P,ugm-3 (FIDAS),14.10295,P,ugm-3,1.132,P,ugm-3 (Ref.eq)
07-01-2024,03:00,2.025,P,ugm-3 (FIDAS),12.37334,P,ugm-3,1.179,P,ugm-3 (Ref.eq)
07-01-2024,04:00,2.225,P,ugm-3 (FIDAS),11.42538,P,ugm-3,1.156,P,ugm-3 (Ref.eq)
07-01-2024,05:00,1.900,P,ugm-3 (FIDAS),8.48173,P,ugm-3,1.038,P,ugm-3 (Ref.eq)
07-01-2024,06:00,2.125,P,ugm-3 (FIDAS),7.43398,P,ugm-3,0.991,P,ugm-3 (Ref.eq)
07-01-2024,07:00,1.400,P,ugm-3 (FIDAS),9.72904,P,ugm-3,0.778,P,ugm-3 (Ref.eq)
07-01-2024,08:00,1.500,P,ugm-3 (FIDAS),7.88302,P,ugm-3,0.684,P,ugm-3 (Ref.eq)
07-01-2024,09:00,1.250,P,ugm-3 (FIDAS),7.03484,P,ugm-3,0.566,P,ugm-3 (Ref.eq)
07-01-2024,10:00,1.250,P,ugm-3 (FIDAS),4.04129,P,ugm-3,0.519,P,ugm-3 (Ref.eq)
07-01-2024,11:00,1.350,P,ugm-3 (FIDAS),4.88947,P,ugm-3,0.566,P,ugm-3 (Ref.eq)
07-01-2024,12:00,1.325,P,ugm-3 (FIDAS),5.53807,P,ugm-3,0.542,P,ugm-3 (Ref.eq)
07-01-2024,13:00,2.500,P,ugm-3 (FIDAS),11.22581,P,ugm-3,1.769,P,ugm-3 (Ref.eq)
07-01-2024,14:00,2.650,P,ugm-3 (FIDAS),23.20001,P,ugm-3,1.627,P,ugm-3 (Ref.eq)
07-01-2024,15:00,2.075,P,ugm-3 (FIDAS),26.84217,P,ugm-3,1.486,P,ugm-3 (Ref.eq)
07-01-2024,16:00,1.775,P,ugm-3 (FIDAS),12.47313,P,ugm-3,1.226,P,ugm-3 (Ref.eq)
07-01-2024,17:00,2.150,P,ugm-3 (FIDAS),2.54452,P,ugm-3,1.745,P,ugm-3 (Ref.eq)
07-01-2024,18:00,7.025,P,ugm-3 (FIDAS),2.59441,P,ugm-3,6.250,P,ugm-3 (Ref.eq)
07-01-2024,19:00,2.900,P,ugm-3 (FIDAS),2.54452,P,ugm-3,2.382,P,ugm-3 (Ref.eq)
07-01-2024,20:00,2.200,P,ugm-3 (FIDAS),3.29291,P,ugm-3,1.722,P,ugm-3 (Ref.eq)
07-01-2024,21:00,4.425,P,ugm-3 (FIDAS),3.54237,P,ugm-3,3.609,P,ugm-3 (Ref.eq)
07-01-2024,22:00,6.375,P,ugm-3 (FIDAS),2.44473,P,ugm-3,4.599,P,ugm-3 (Ref.eq)
07-01-2024,23:00,12.250,P,ugm-3 (FIDAS),7.08474,P,ugm-3,10.236,P,ugm-3 (Ref.eq)
07-01-2024,24:00,17.250,P,ugm-3 (FIDAS),8.08259,P,ugm-3,14.151,P,ugm-3 (Ref.eq)
08-01-2024,01:00,16.075,P,ugm-3 (FIDAS),7.71671,P,ugm-3,14.175,P,ugm-3 (Ref.eq)
08-01-2024,02:00,13.725,P,ugm-3 (FIDAS),6.98495,P,ugm-3,12.618,P,ugm-3 (Ref.eq)
08-01-2024,03:00,11.250,P,ugm-3 (FIDAS),12.82237,P,ugm-3,10.448,P,ugm-3 (Ref.eq)
08-01-2024,04:00,9.700,P,ugm-3 (FIDAS),23.34969,P,ugm-3,9.057,P,ugm-3 (Ref.eq)
08-01-2024,05:00,8.850,P,ugm-3 (FIDAS),14.66840,P,ugm-3,8.231,P,ugm-3 (Ref.eq)
08-01-2024,06:00,8.425,P,ugm-3 (FIDAS),11.87442,P,ugm-3,7.571,P,ugm-3 (Ref.eq)
08-01-2024,07:00,8.800,P,ugm-3 (FIDAS),11.67485,P,ugm-3,8.255,P,ugm-3 (Ref.eq)
08-01-2024,08:00,9.225,P,ugm-3 (FIDAS),10.82667,P,ugm-3,8.538,P,ugm-3 (Ref.eq)
08-01-2024,09:00,8.950,P,ugm-3 (FIDAS),7.18452,P,ugm-3,8.042,P,ugm-3 (Ref.eq)
08-01-2024,10:00,8.375,P,ugm-3 (FIDAS),7.53377,P,ugm-3,7.453,P,ugm-3 (Ref.eq)
08-01-2024,11:00,8.425,P,ugm-3 (FIDAS),11.67485,P,ugm-3,7.594,P,ugm-3 (Ref.eq)
08-01-2024,12:00,9.350,P,ugm-3 (FIDAS),22.05249,P,ugm-3,8.514,P,ugm-3 (Ref.eq)
08-01-2024,13:00,8.625,P,ugm-3 (FIDAS),27.69034,P,ugm-3,7.547,P,ugm-3 (Ref.eq)
08-01-2024,14:00,8.675,P,ugm-3 (FIDAS),32.08088,P,ugm-3,7.264,P,ugm-3 (Ref.eq)
08-01-2024,15:00,8.900,P,ugm-3 (FIDAS),35.17421,P,ugm-3,7.146,P,ugm-3 (Ref.eq)
08-01-2024,16:00,6.925,P,ugm-3 (FIDAS),32.82927,P,ugm-3,5.849,P,ugm-3 (Ref.eq)
08-01-2024,17:00,4.050,P,ugm-3 (FIDAS),20.95485,P,ugm-3,3.349,P,ugm-3 (Ref.eq)
08-01-2024,18:00,18.400,P,ugm-3 (FIDAS),13.87012,P,ugm-3,16.722,P,ugm-3 (Ref.eq)
08-01-2024,19:00,9.800,P,ugm-3 (FIDAS),35.72303,P,ugm-3,8.042,P,ugm-3 (Ref.eq)
08-01-2024,20:00,7.900,P,ugm-3 (FIDAS),39.51486,P,ugm-3,6.557,P,ugm-3 (Ref.eq)
08-01-2024,21:00,9.825,P,ugm-3 (FIDAS),36.22196,P,ugm-3,7.901,P,ugm-3 (Ref.eq)
08-01-2024,22:00,11.275,P,ugm-3 (FIDAS),35.97249,P,ugm-3,9.458,P,ugm-3 (Ref.eq)
08-01-2024,23:00,9.150,P,ugm-3 (FIDAS),46.05078,P,ugm-3,7.736,P,ugm-3 (Ref.eq)
08-01-2024,24:00,6.000,P,ugm-3 (FIDAS),59.32218,P,ugm-3,4.269,P,ugm-3 (Ref.eq)
09-01-2024,01:00,5.675,P,ugm-3 (FIDAS),61.13494,P,ugm-3,3.632,P,ugm-3 (Ref.eq)
09-01-2024,02:00,5.850,P,ugm-3 (FIDAS),62.39889,P,ugm-3,3.632,P,ugm-3 (Ref.eq)
09-01-2024,03:00,5.800,P,ugm-3 (FIDAS),59.77122,P,ugm-3,3.868,P,ugm-3 (Ref.eq)
09-01-2024,04:00,6.200,P,ugm-3 (FIDAS),60.73580,P,ugm-3,4.080,P,ugm-3 (Ref.eq)
09-01-2024,05:00,6.075,P,ugm-3 (FIDAS),65.75832,P,ugm-3,3.396,P,ugm-3 (Ref.eq)
09-01-2024,06:00,5.550,P,ugm-3 (FIDAS),68.00348,P,ugm-3,3.278,P,ugm-3 (Ref.eq)
09-01-2024,07:00,6.275,P,ugm-3 (FIDAS),70.04907,P,ugm-3,3.113,P,ugm-3 (Ref.eq)
09-01-2024,08:00,6.225,P,ugm-3 (FIDAS),63.06412,P,ugm-3,3.514,P,ugm-3 (Ref.eq)
09-01-2024,09:00,6.200,P,ugm-3 (FIDAS),63.31358,P,ugm-3,3.349,P,ugm-3 (Ref.eq)
09-01-2024,10:00,5.775,P,ugm-3 (FIDAS),62.11616,P,ugm-3,3.325,P,ugm-3 (Ref.eq)
09-01-2024,11:00,6.200,P,ugm-3 (FIDAS),62.21595,P,ugm-3,3.302,P,ugm-3 (Ref.eq)
09-01-2024,12:00,6.225,P,ugm-3 (FIDAS),61.51745,P,ugm-3,3.514,P,ugm-3 (Ref.eq)
09-01-2024,13:00,6.900,P,ugm-3 (FIDAS),60.66928,P,ugm-3,3.679,P,ugm-3 (Ref.eq)
09-01-2024,14:00,7.475,P,ugm-3 (FIDAS),63.26369,P,ugm-3,3.939,P,ugm-3 (Ref.eq)
09-01-2024,15:00,7.100,P,ugm-3 (FIDAS),68.20305,P,ugm-3,3.750,P,ugm-3 (Ref.eq)
09-01-2024,16:00,8.075,P,ugm-3 (FIDAS),69.84950,P,ugm-3,3.821,P,ugm-3 (Ref.eq)
09-01-2024,17:00,7.675,P,ugm-3 (FIDAS),64.01208,P,ugm-3,3.915,P,ugm-3 (Ref.eq)
09-01-2024,18:00,7.650,P,ugm-3 (FIDAS),52.88605,P,ugm-3,4.292,P,ugm-3 (Ref.eq)
09-01-2024,19:00,7.600,P,ugm-3 (FIDAS),48.44562,P,ugm-3,4.104,P,ugm-3 (Ref.eq)
09-01-2024,20:00,9.300,P,ugm-3 (FIDAS),50.24175,P,ugm-3,5.778,P,ugm-3 (Ref.eq)
09-01-2024,21:00,8.425,P,ugm-3 (FIDAS),49.84261,P,ugm-3,5.495,P,ugm-3 (Ref.eq)
09-01-2024,22:00,7.000,P,ugm-3 (FIDAS),56.27874,P,ugm-3,4.811,P,ugm-3 (Ref.eq)
09-01-2024,23:00,7.550,P,ugm-3 (FIDAS),55.33078,P,ugm-3,5.307,P,ugm-3 (Ref.eq)
09-01-2024,24:00,7.600,P,ugm-3 (FIDAS),53.58455,P,ugm-3,5.425,P,ugm-3 (Ref.eq)
10-01-2024,01:00,7.000,P,ugm-3 (FIDAS),51.62211,P,ugm-3,4.906,P,ugm-3 (Ref.eq)
10-01-2024,02:00,6.550,P,ugm-3 (FIDAS),50.69078,P,ugm-3,4.363,P,ugm-3 (Ref.eq)
10-01-2024,03:00,6.450,P,ugm-3 (FIDAS),49.39358,P,ugm-3,4.127,P,ugm-3 (Ref.eq)
10-01-2024,04:00,4.450,P,ugm-3 (FIDAS),45.75142,P,ugm-3,3.208,P,ugm-3 (Ref.eq)
10-01-2024,05:00,3.825,P,ugm-3 (FIDAS),47.69723,P,ugm-3,2.689,P,ugm-3 (Ref.eq)
10-01-2024,06:00,3.050,P,ugm-3 (FIDAS),49.34368,P,ugm-3,2.005,P,ugm-3 (Ref.eq)
10-01-2024,07:00,2.750,P,ugm-3 (FIDAS),35.82282,P,ugm-3,1.745,P,ugm-3 (Ref.eq)
10-01-2024,08:00,1.575,P,ugm-3 (FIDAS),17.46238,P,ugm-3,1.226,P,ugm-3 (Ref.eq)
10-01-2024,09:00,1.425,P,ugm-3 (FIDAS),13.17162,P,ugm-3,1.014,P,ugm-3 (Ref.eq)
10-01-2024,10:00,1.375,P,ugm-3 (FIDAS),45.35228,P,ugm-3,0.873,P,ugm-3 (Ref.eq)
10-01-2024,11:00,1.475,P,ugm-3 (FIDAS),55.72992,P,ugm-3,0.967,P,ugm-3 (Ref.eq)
10-01-2024,12:00,1.125,P,ugm-3 (FIDAS),57.52605,P,ugm-3,0.755,P,ugm-3 (Ref.eq)
10-01-2024,13:00,1.550,P,ugm-3 (FIDAS),56.21222,P,ugm-3,0.896,P,ugm-3 (Ref.eq)
10-01-2024,14:00,2.375,P,ugm-3 (FIDAS),52.78627,P,ugm-3,1.368,P,ugm-3 (Ref.eq)
10-01-2024,15:00,2.175,P,ugm-3 (FIDAS),51.08992,P,ugm-3,1.604,P,ugm-3 (Ref.eq)
10-01-2024,16:00,4.525,P,ugm-3 (FIDAS),42.80777,P,ugm-3,2.995,P,ugm-3 (Ref.eq)
10-01-2024,17:00,6.675,P,ugm-3 (FIDAS),43.35658,P,ugm-3,4.788,P,ugm-3 (Ref.eq)
10-01-2024,18:00,7.400,P,ugm-3 (FIDAS),44.85336,P,ugm-3,5.566,P,ugm-3 (Ref.eq)
10-01-2024,19:00,4.375,P,ugm-3 (FIDAS),51.08992,P,ugm-3,3.632,P,ugm-3 (Ref.eq)
10-01-2024,20:00,2.425,P,ugm-3 (FIDAS),54.63229,P,ugm-3,1.840,P,ugm-3 (Ref.eq)
10-01-2024,21:00,5.150,P,ugm-3 (FIDAS),55.38068,P,ugm-3,4.292,P,ugm-3 (Ref.eq)
10-01-2024,22:00,4.875,P,ugm-3 (FIDAS),55.38068,P,ugm-3,4.104,P,ugm-3 (Ref.eq)
10-01-2024,23:00,3.600,P,ugm-3 (FIDAS),60.81896,P,ugm-3,2.877,P,ugm-3 (Ref.eq)
10-01-2024,24:00,3.200,P,ugm-3 (FIDAS),61.91659,P,ugm-3,2.476,P,ugm-3 (Ref.eq)
11-01-2024,01:00,2.100,P,ugm-3 (FIDAS),62.99760,P,ugm-3,1.604,P,ugm-3 (Ref.eq)
11-01-2024,02:00,1.850,P,ugm-3 (FIDAS),61.73365,P,ugm-3,1.250,P,ugm-3 (Ref.eq)
11-01-2024,03:00,1.825,P,ugm-3 (FIDAS),58.27444,P,ugm-3,1.250,P,ugm-3 (Ref.eq)
11-01-2024,04:00,2.025,P,ugm-3 (FIDAS),53.53465,P,ugm-3,1.297,P,ugm-3 (Ref.eq)
11-01-2024,05:00,1.650,P,ugm-3 (FIDAS),47.59745,P,ugm-3,1.203,P,ugm-3 (Ref.eq)
11-01-2024,06:00,2.050,P,ugm-3 (FIDAS),50.34153,P,ugm-3,1.226,P,ugm-3 (Ref.eq)
11-01-2024,07:00,1.525,P,ugm-3 (FIDAS),51.78842,P,ugm-3,0.967,P,ugm-3 (Ref.eq)
11-01-2024,08:00,1.450,P,ugm-3 (FIDAS),51.43917,P,ugm-3,0.991,P,ugm-3 (Ref.eq)
11-01-2024,09:00,1.575,P,ugm-3 (FIDAS),40.46282,P,ugm-3,0.943,P,ugm-3 (Ref.eq)
11-01-2024,10:00,1.925,P,ugm-3 (FIDAS),52.13766,P,ugm-3,1.156,P,ugm-3 (Ref.eq)
11-01-2024,11:00,2.650,P,ugm-3 (FIDAS),57.57595,P,ugm-3,1.344,P,ugm-3 (Ref.eq)
11-01-2024,12:00,2.175,P,ugm-3 (FIDAS),63.39674,P,ugm-3,1.509,P,ugm-3 (Ref.eq)
11-01-2024,13:00,2.600,P,ugm-3 (FIDAS),63.91229,P,ugm-3,1.392,P,ugm-3 (Ref.eq)
11-01-2024,14:00,2.125,P,ugm-3 (FIDAS),63.06412,P,ugm-3,1.321,P,ugm-3 (Ref.eq)
11-01-2024,15:00,2.100,P,ugm-3 (FIDAS),58.52390,P,ugm-3,1.439,P,ugm-3 (Ref.eq)
11-01-2024,16:00,2.700,P,ugm-3 (FIDAS),55.87960,P,ugm-3,1.934,P,ugm-3 (Ref.eq)
11-01-2024,17:00,2.525,P,ugm-3 (FIDAS),55.13121,P,ugm-3,1.792,P,ugm-3 (Ref.eq)
11-01-2024,18:00,2.925,P,ugm-3 (FIDAS),51.68863,P,ugm-3,2.099,P,ugm-3 (Ref.eq)
11-01-2024,19:00,4.575,P,ugm-3 (FIDAS),51.78842,P,ugm-3,3.325,P,ugm-3 (Ref.eq)
11-01-2024,20:00,7.075,P,ugm-3 (FIDAS),49.74282,P,ugm-3,5.731,P,ugm-3 (Ref.eq)
11-01-2024,21:00,8.250,P,ugm-3 (FIDAS),46.99874,P,ugm-3,6.651,P,ugm-3 (Ref.eq)
11-01-2024,22:00,5.200,P,ugm-3 (FIDAS),55.68003,P,ugm-3,4.269,P,ugm-3 (Ref.eq)
11-01-2024,23:00,5.900,P,ugm-3 (FIDAS),53.68433,P,ugm-3,4.764,P,ugm-3 (Ref.eq)
11-01-2024,24:00,4.775,P,ugm-3 (FIDAS),52.13766,P,ugm-3,3.986,P,ugm-3 (Ref.eq)
12-01-2024,01:00,5.150,P,ugm-3 (FIDAS),42.57493,P,ugm-3,4.269,P,ugm-3 (Ref.eq)
12-01-2024,02:00,8.200,P,ugm-3 (FIDAS),52.15429,P,ugm-3,6.792,P,ugm-3 (Ref.eq)
12-01-2024,03:00,7.125,P,ugm-3 (FIDAS),45.35228,P,ugm-3,6.179,P,ugm-3 (Ref.eq)
12-01-2024,04:00,6.325,P,ugm-3 (FIDAS),35.27400,P,ugm-3,5.283,P,ugm-3 (Ref.eq)
12-01-2024,05:00,6.525,P,ugm-3 (FIDAS),34.97464,P,ugm-3,5.519,P,ugm-3 (Ref.eq)
12-01-2024,06:00,9.025,P,ugm-3 (FIDAS),46.84906,P,ugm-3,7.807,P,ugm-3 (Ref.eq)
12-01-2024,07:00,9.050,P,ugm-3 (FIDAS),44.85336,P,ugm-3,8.090,P,ugm-3 (Ref.eq)
12-01-2024,08:00,8.625,P,ugm-3 (FIDAS),44.80347,P,ugm-3,7.547,P,ugm-3 (Ref.eq)
12-01-2024,09:00,8.925,P,ugm-3 (FIDAS),46.05078,P,ugm-3,7.665,P,ugm-3 (Ref.eq)
12-01-2024,10:00,9.025,P,ugm-3 (FIDAS),47.14841,P,ugm-3,7.877,P,ugm-3 (Ref.eq)
12-01-2024,11:00,9.175,P,ugm-3 (FIDAS),50.99014,P,ugm-3,8.066,P,ugm-3 (Ref.eq)
12-01-2024,12:00,9.625,P,ugm-3 (FIDAS),52.28734,P,ugm-3,8.208,P,ugm-3 (Ref.eq)
12-01-2024,13:00,9.700,P,ugm-3 (FIDAS),50.99014,P,ugm-3,8.137,P,ugm-3 (Ref.eq)
12-01-2024,14:00,9.450,P,ugm-3 (FIDAS),49.04433,P,ugm-3,8.090,P,ugm-3 (Ref.eq)
12-01-2024,15:00,10.150,P,ugm-3 (FIDAS),48.19616,P,ugm-3,8.774,P,ugm-3 (Ref.eq)
12-01-2024,16:00,10.200,P,ugm-3 (FIDAS),48.89465,P,ugm-3,8.892,P,ugm-3 (Ref.eq)
12-01-2024,17:00,6.775,P,ugm-3 (FIDAS),47.44777,P,ugm-3,5.920,P,ugm-3 (Ref.eq)
12-01-2024,18:00,11.050,P,ugm-3 (FIDAS),38.41723,P,ugm-3,9.670,P,ugm-3 (Ref.eq)
12-01-2024,19:00,8.300,P,ugm-3 (FIDAS),33.07873,P,ugm-3,6.981,P,ugm-3 (Ref.eq)
12-01-2024,20:00,18.875,P,ugm-3 (FIDAS),36.22196,P,ugm-3,17.052,P,ugm-3 (Ref.eq)
12-01-2024,21:00,6.200,P,ugm-3 (FIDAS),34.02669,P,ugm-3,5.472,P,ugm-3 (Ref.eq)
12-01-2024,22:00,8.000,P,ugm-3 (FIDAS),38.86626,P,ugm-3,6.958,P,ugm-3 (Ref.eq)
12-01-2024,23:00,6.250,P,ugm-3 (FIDAS),38.41723,P,ugm-3,5.307,P,ugm-3 (Ref.eq)
12-01-2024,24:00,11.025,P,ugm-3 (FIDAS),42.75787,P,ugm-3,9.788,P,ugm-3 (Ref.eq)
13-01-2024,01:00,10.375,P,ugm-3 (FIDAS),38.58353,P,ugm-3,9.104,P,ugm-3 (Ref.eq)
13-01-2024,02:00,5.275,P,ugm-3 (FIDAS),36.12217,P,ugm-3,4.623,P,ugm-3 (Ref.eq)
13-01-2024,03:00,5.350,P,ugm-3 (FIDAS),38.06798,P,ugm-3,4.670,P,ugm-3 (Ref.eq)
13-01-2024,04:00,5.350,P,ugm-3 (FIDAS),37.26970,P,ugm-3,4.528,P,ugm-3 (Ref.eq)
13-01-2024,05:00,4.650,P,ugm-3 (FIDAS),26.64260,P,ugm-3,3.821,P,ugm-3 (Ref.eq)
13-01-2024,06:00,5.100,P,ugm-3 (FIDAS),17.91141,P,ugm-3,4.151,P,ugm-3 (Ref.eq)
13-01-2024,07:00,5.875,P,ugm-3 (FIDAS),26.39313,P,ugm-3,5.071,P,ugm-3 (Ref.eq)
13-01-2024,08:00,5.000,P,ugm-3 (FIDAS),22.85077,P,ugm-3,4.104,P,ugm-3 (Ref.eq)
13-01-2024,09:00,4.825,P,ugm-3 (FIDAS),31.08303,P,ugm-3,3.939,P,ugm-3 (Ref.eq)
13-01-2024,10:00,3.600,P,ugm-3 (FIDAS),37.31959,P,ugm-3,2.995,P,ugm-3 (Ref.eq)
13-01-2024,11:00,4.250,P,ugm-3 (FIDAS),33.92690,P,ugm-3,3.703,P,ugm-3 (Ref.eq)